Weather History for Marshfield, WI

Change the Weather History Date:

Sunday, March 2, 2014

  Actual Average Record
Temperature  
Mean Temperature -8 °F -  
Max Temperature 0 °F 33 °F 55 °F (1923)
Min Temperature -15 °F 15 °F -20 °F (1913)
Degree Days  
Heating Degree Days 72    
Moisture  
Dew Point -21 °F    
Average Humidity 49    
Maximum Humidity 67    
Minimum Humidity 39    
Precipitation  
Precipitation 0.00 in - - ()
Sea Level Pressure  
Sea Level Pressure 30.50 in    
Wind  
Wind Speed 10 mph (NW)    
Max Wind Speed 15 mph    
Max Gust Speed -    
Visibility 10 miles    
Events      
Averages and records for this station are not official NWS values.
T = Trace of Precipitation, MM = Missing Value Source: NWS Daily Summary

Daily Weather History Graph

Daily Weather History Graph

Search for Another Location

Airport:

Trip Planner

Search our weather history database for the weather conditions in past years. The results will help you decide how hot, cold, wet, or windy it might be!

Date:

Astronomy

Mar. 02, 2014 Rise Set
Actual Time 6:36 AM CST 5:49 PM CST
Civil Twilight 6:07 AM CST 6:19 PM CST
Nautical Twilight 5:33 AM CST 6:52 PM CST
Astronomical Twilight 4:59 AM CST 7:26 PM CST
Moon 7:02 AM CST (3/2) 7:52 PM CST (3/2)
Length of Visible Light 12h 11m
Length of Day
11h 13m
Waxing Crescent, 3% of the Moon is Illuminated
Mar 2
Waxing Crescent
Mar 8
First Quarter
Mar 16
Full
Mar 23
Last Quarter
Mar 30
New

Hourly Weather History & Observations

Time (CST) Temp. Windchill Dew Point Humidity Pressure Visibility Wind Dir Wind Speed Gust Speed Precip Events Conditions
12:54 AM -2.9 °F -18.8 °F -17.0 °F 51% 30.48 in 10.0 mi NNW 9.2 mph - N/A   Clear
1:54 AM -2.9 °F -20.8 °F -18.0 °F 49% 30.48 in 10.0 mi NNW 11.5 mph - N/A   Scattered Clouds
2:54 AM -4.0 °F -21.2 °F -18.0 °F 51% 30.48 in 10.0 mi NW 10.4 mph - N/A   Scattered Clouds
3:54 AM -8.0 °F -27.1 °F -20.9 °F 53% 30.48 in 10.0 mi NNW 11.5 mph - N/A   Clear
4:54 AM -11.0 °F -28.8 °F -23.1 °F 55% 30.49 in 10.0 mi NNW 9.2 mph - N/A   Clear
5:54 AM -14.1 °F -31.3 °F -25.1 °F 58% 30.52 in 10.0 mi NW 8.1 mph - N/A   Clear
6:54 AM -15.0 °F -33.7 °F -26.0 °F 58% 30.52 in 10.0 mi NW 9.2 mph - N/A   Clear
7:54 AM -13.0 °F -33.4 °F -25.1 °F 55% 30.53 in 10.0 mi NW 11.5 mph - N/A   Clear
8:54 AM -11.0 °F -33.5 °F -26.0 °F 48% 30.53 in 10.0 mi NW 15.0 mph - N/A   Clear
9:54 AM -9.0 °F -28.4 °F -25.1 °F 45% 30.52 in 10.0 mi NW 11.5 mph - N/A   Clear
10:54 AM -8.0 °F -26.1 °F -23.1 °F 48% 30.53 in 10.0 mi WNW 10.4 mph - N/A   Clear
11:54 AM -5.1 °F -23.5 °F -23.1 °F 42% 30.53 in 10.0 mi WNW 11.5 mph - N/A   Clear
12:54 PM -2.9 °F -19.8 °F -22.0 °F 40% 30.51 in 10.0 mi WNW 10.4 mph - N/A   Clear
1:54 PM -0.0 °F -18.0 °F -20.0 °F 39% 30.48 in 10.0 mi NW 12.7 mph - N/A   Clear
2:54 PM -0.0 °F -19.4 °F -18.0 °F 43% 30.47 in 10.0 mi NW 15.0 mph - N/A   Clear
3:54 PM -0.0 °F -19.4 °F -18.9 °F 41% 30.47 in 10.0 mi NW 15.0 mph - N/A   Clear
4:54 PM -0.0 °F -17.1 °F -18.9 °F 41% 30.48 in 10.0 mi WNW 11.5 mph - N/A   Clear
5:54 PM -2.0 °F -18.7 °F -20.0 °F 42% 30.49 in 10.0 mi WNW 10.4 mph - N/A   Clear
6:54 PM -5.1 °F -21.5 °F -20.0 °F 49% 30.49 in 10.0 mi WNW 9.2 mph - N/A   Clear
7:54 PM -6.0 °F -22.6 °F -20.0 °F 51% 30.49 in 10.0 mi WNW 9.2 mph - N/A   Clear
8:54 PM -7.1 °F -22.8 °F -20.0 °F 53% 30.49 in 10.0 mi WNW 8.1 mph - N/A   Clear
9:54 PM -7.1 °F -18.1 °F -20.0 °F 53% 30.52 in 10.0 mi West 4.6 mph - N/A   Clear
10:54 PM -9.9 °F -19.2 °F -22.0 °F 55% 30.53 in 10.0 mi West 3.5 mph - N/A   Clear
11:54 PM -15.0 °F -31.0 °F -23.1 °F 67% 30.54 in 10.0 mi WNW 6.9 mph - N/A   Clear